This is the latest recevied weather packets stored in our database for station/object G4KVI. If no packets are shown the sender has not sent any weather packets the latest 10 day(s).
| Time | Temp. | Humidity | Pressure | Rain* | Wind** | Luminosity | Snow |
|---|---|---|---|---|---|---|---|
| 1777573204 | 18.89° C | 31% | 1020.6 hPa | 0 mm | - | 77 W/m² | - |
| 1777572904 | 19.44° C | 30% | 1020.8 hPa | 0 mm | - | 82 W/m² | - |
| 1777572604 | 19.44° C | 30% | 1020.5 hPa | 0 mm | - | 93 W/m² | - |
| 1777572304 | 19.44° C | 30% | 1020.4 hPa | 0 mm | - | 93 W/m² | - |
| 1777572004 | 19.44° C | 29% | 1020.3 hPa | 0 mm | - | 108 W/m² | - |
| 1777571704 | 19.44° C | 29% | 1020.4 hPa | 0 mm | - | 115 W/m² | - |
| 1777571404 | 19.44° C | 29% | 1020.4 hPa | 0 mm | - | 106 W/m² | - |
| 1777571104 | 19.44° C | 29% | 1020.3 hPa | 0 mm | - | 86 W/m² | - |
| 1777570804 | 19.44° C | 29% | 1020.1 hPa | 0 mm | - | 106 W/m² | - |
| 1777570504 | 19.44° C | 29% | 1020 hPa | 0 mm | - | 104 W/m² | - |
| 1777570204 | 20° C | 29% | 1020.2 hPa | 0 mm | - | 105 W/m² | - |
| 1777569904 | 20° C | 28% | 1020 hPa | 0 mm | - | 123 W/m² | - |
| 1777569604 | 20° C | 28% | 1020.3 hPa | 0 mm | - | 152 W/m² | - |
| 1777569304 | 20.56° C | 27% | 1020.2 hPa | 0 mm | - | 149 W/m² | - |
| 1777569004 | 20.56° C | 27% | 1020.2 hPa | 0 mm | - | 181 W/m² | - |
| 1777568704 | 20.56° C | 26% | 1020.3 hPa | 0 mm | - | 205 W/m² | - |
| 1777568404 | 20.56° C | 26% | 1020.4 hPa | 0 mm | - | 128 W/m² | - |
| 1777568104 | 20.56° C | 26% | 1020.3 hPa | 0 mm | - | 204 W/m² | - |
| 1777567804 | 21.11° C | 26% | 1020.2 hPa | 0 mm | - | 206 W/m² | - |
| 1777567504 | 21.11° C | 25% | 1020.3 hPa | 0 mm | - | 323 W/m² | - |
| 1777567204 | 21.11° C | 25% | 1020.2 hPa | 0 mm | - | 304 W/m² | - |
| 1777566904 | 21.67° C | 24% | 1020.4 hPa | 0 mm | - | 347 W/m² | - |
| 1777566604 | 21.11° C | 22% | 1020.3 hPa | 0 mm | - | 342 W/m² | - |
| 1777566304 | 21.67° C | 21% | 1020.2 hPa | 0 mm | - | 312 W/m² | - |
| 1777566004 | 21.67° C | 22% | 1020.2 hPa | 0 mm | - | 349 W/m² | - |
* Rain latest hour (hover to see other rain measurements)
** Current wind speed in m/s (hover to see current wind gust speed)